Location: Krakow
(50.0212°N, 19.9423°E)
Time: 12:47:23
(UTC+02:00)

NOAA 18 - Pass Details

Date: 29 April 2025
Orbit: 837 x 857 km, 98.8° (Epoch: 14 May)

Event Time Altitude Azimuth Distance (km) Brightness Sun altitude
Exits shadow 20:57:33 - 99° (E) 2,664 7.3 -9.3°
Reaches altitude 10° 20:58:11 10° 94° (E) 2,493 7.1 -9.4°
Maximum altitude 21:01:48 18° 53° (NE) 1,981 7.0 -9.8°
Drops below altitude 10° 21:05:25 10° 12° (NNE) 2,503 8.0 -10.3°
Sets 21:08:31 0° 355° (N) 3,443 9.1 -10.7°
